Weather History for Alexandroupoli, Greece

Change the Weather History Date:

Friday, November 30, 2012

  Actual Average Record
Temperature  
Mean Temperature 62 °F -  
Max Temperature 65 °F 51 °F 68 °F (2010)
Min Temperature 59 °F 38 °F 30 °F (1999)
Degree Days  
Heating Degree Days 3    
Growing Degree Days 12 (Base 50)    
Moisture  
Dew Point 59 °F    
Average Humidity 88    
Maximum Humidity 100    
Minimum Humidity 72    
Precipitation  
Precipitation 0.02 in 0.11 in - ()
Sea Level Pressure  
Sea Level Pressure 29.79 in    
Wind  
Wind Speed 17 mph ()    
Max Wind Speed 33 mph    
Max Gust Speed 46 mph    
Visibility 5.2 miles    
Events Rain , Thunderstorm    
Averages and records for this station are not official NWS values.
T = Trace of Precipitation, MM = Missing Value Source: Averaged Metar Reports

Daily Weather History Graph

Daily Weather History Graph

Search for Another Location

Airport:

Trip Planner

Search our weather history database for the weather conditions in past years. The results will help you decide how hot, cold, wet, or windy it might be!

Date:

Astronomy

Nov. 30, 2012 Rise Set
Actual Time 7:20 AM EET 4:49 PM EET
Civil Twilight 6:50 AM EET 5:19 PM EET
Nautical Twilight 6:16 AM EET 5:53 PM EET
Astronomical Twilight 5:42 AM EET 6:26 PM EET
Moon 6:27 PM EET (11/30) 8:38 AM EET (11/30)
Length of Visible Light 10h 29m
Length of Day
9h 28m
Full, 97% of the Moon is Illuminated
Nov 30
Full
Dec 6
Last Quarter
Dec 13
New
Dec 20
First Quarter
Dec 28
Full

Hourly Weather History & Observations

Time (EET) Temp. Dew Point Humidity Pressure Visibility Wind Dir Wind Speed Gust Speed Precip Events Conditions
12:20 AM 62.6 °F 57.2 °F 82% 29.77 in 6.2 mi South 26.5 mph - N/A   Mostly Cloudy
12:50 AM 62.6 °F 57.2 °F 82% 29.77 in 6.2 mi South 27.6 mph - N/A   Mostly Cloudy
1:50 AM 62.6 °F 57.2 °F 82% 29.77 in 6.2 mi South 25.3 mph - N/A   Mostly Cloudy
2:00 AM 63 °F 56 °F 72% 29.78 in 6 mi South 25.3 mph - -   Partly Cloudy
2:50 AM 62.6 °F 57.2 °F 82% 29.77 in 6.2 mi South 25.3 mph - N/A   Mostly Cloudy
3:20 AM 62.6 °F 57.2 °F 82% 29.77 in 6.2 mi South 25.3 mph - N/A   Mostly Cloudy
3:50 AM 60.8 °F 59.0 °F 94% 29.77 in 3.7 mi SSW 33.4 mph 46.0 mph N/A Rain , Thunderstorm Thunderstorms and Rain
4:50 AM 60.8 °F 57.2 °F 88% 29.74 in 6.2 mi SW 16.1 mph - N/A Thunderstorm Thunderstorm
5:20 AM 60.8 °F 57.2 °F 88% 29.74 in 6.2 mi SW 16.1 mph - N/A Thunderstorm Thunderstorm
5:50 AM 59.0 °F 55.4 °F 88% 29.71 in 6.2 mi WSW 12.7 mph - N/A   Overcast
6:50 AM 59.0 °F 55.4 °F 88% 29.71 in 6.2 mi South 20.7 mph - N/A Rain Light Rain
7:20 AM 59.0 °F 55.4 °F 88% 29.74 in 6.2 mi SW 11.5 mph - N/A   Overcast
7:50 AM 59.0 °F 55.4 °F 88% 29.74 in 5.0 mi SSW 11.5 mph - N/A   Mostly Cloudy
8:00 AM 59 °F 56 °F 85% 29.76 in 5 mi SSW 11.5 mph - -   Mist
8:20 AM 59.0 °F 55.4 °F 88% 29.74 in 5.0 mi SSW 11.5 mph - N/A   Mostly Cloudy
8:50 AM 59.0 °F 55.4 °F 88% 29.77 in 5.0 mi SSW 21.9 mph - N/A   Mostly Cloudy
9:20 AM 59.0 °F 55.4 °F 88% 29.77 in 5.0 mi SSW 20.7 mph - N/A   Mostly Cloudy
9:50 AM 60.8 °F 57.2 °F 88% 29.80 in 4.3 mi SSW 20.7 mph - N/A   Mostly Cloudy
10:20 AM 60.8 °F 57.2 °F 88% 29.80 in 4.3 mi SSW 18.4 mph - N/A   Mostly Cloudy
10:50 AM 64.4 °F 59.0 °F 83% 29.80 in 4.3 mi SSW 17.3 mph - N/A   Mostly Cloudy
11:20 AM 64.4 °F 59.0 °F 83% 29.80 in 4.3 mi SSW 17.3 mph - N/A   Mostly Cloudy
11:50 AM 64.4 °F 60.8 °F 88% 29.80 in 5.0 mi SW 11.5 mph - N/A   Mostly Cloudy
12:20 PM 64.4 °F 60.8 °F 88% 29.80 in 4.3 mi SW 10.4 mph - N/A   Mostly Cloudy
12:50 PM 64.4 °F 59.0 °F 83% 29.80 in 4.3 mi SW 12.7 mph - N/A   Mostly Cloudy
1:20 PM 64.4 °F 59.0 °F 83% 29.80 in 5.0 mi SW 15.0 mph - N/A Thunderstorm Thunderstorm
1:50 PM 64.4 °F 60.8 °F 88% 29.80 in 5.0 mi SW 15.0 mph - N/A Thunderstorm Thunderstorm
2:00 PM 64 °F 60 °F 83% 29.81 in 5 mi SW 15.0 mph - - Thunderstorm Thunderstorm
2:20 PM 64.4 °F 60.8 °F 88% 29.80 in 5.0 mi SW 13.8 mph - N/A   Mostly Cloudy
2:50 PM 64.4 °F 62.6 °F 94% 29.80 in 5.0 mi WSW 12.7 mph - N/A Rain Light Rain
3:20 PM 64.4 °F 62.6 °F 94% 29.80 in 5.6 mi WSW 13.8 mph - N/A   Scattered Clouds
3:50 PM 64.4 °F 62.6 °F 94% 29.80 in 5.0 mi WSW 12.7 mph - N/A   Scattered Clouds
4:20 PM 64.4 °F 62.6 °F 94% 29.80 in 5.0 mi SSW 8.1 mph - N/A   Scattered Clouds
4:50 PM 62.6 °F 60.8 °F 94% 29.80 in 4.3 mi SSW 11.5 mph - N/A Rain , Thunderstorm Light Thunderstorms and Rain
5:20 PM 62.6 °F 60.8 °F 94% 29.83 in 5.6 mi SW 11.5 mph - N/A   Scattered Clouds
5:50 PM 62.6 °F 60.8 °F 94% 29.83 in 4.3 mi SW 12.7 mph - N/A Rain Light Rain
6:20 PM 60.8 °F 59.0 °F 94% 29.83 in 6.2 mi SW 6.9 mph - N/A   Scattered Clouds
6:50 PM 60.8 °F 55.4 °F 82% 29.83 in - North - - N/A   Scattered Clouds
7:20 PM 60.8 °F 57.2 °F 88% 29.83 in - North - - N/A   Scattered Clouds
7:50 PM 62.6 °F 59.0 °F 88% 29.83 in - North - - N/A Rain Light Rain
8:00 PM 63 °F 59 °F 82% 29.85 in 5 mi SW 5.8 mph - - Rain Light Rain
8:20 PM 62.6 °F 60.8 °F 94% 29.83 in - North - - N/A Rain Light Rain
8:50 PM 60.8 °F 59.0 °F 94% 29.83 in - North - - N/A Rain Light Rain
9:20 PM 60.8 °F 59.0 °F 94% 29.83 in - North - - N/A Rain Light Rain
9:50 PM 59.0 °F 59.0 °F 100% 29.83 in - North - - N/A Rain , Thunderstorm Thunderstorms and Rain
10:20 PM 60.8 °F 59.0 °F 94% 29.83 in - North - - N/A Rain , Thunderstorm Light Thunderstorms and Rain
10:50 PM 60.8 °F 59.0 °F 94% 29.83 in - North - - N/A Rain , Thunderstorm Light Thunderstorms and Rain
11:20 PM 60.8 °F 59.0 °F 94% 29.83 in - North - - N/A Thunderstorm Thunderstorm
11:50 PM 60.8 °F 59.0 °F 94% 29.83 in - North - - N/A Rain , Thunderstorm Thunderstorms and Rain